SCP
0 0 0 0 0 0 0 0 0 0 0 0 0 0 0 0 0 0 0 0 0 0 0 0 0 0 0 0 0 0 0 0 0 0 0 0 0 0 0 0 0 0 0
0 0 0 0 0 0 0 0 0 0 0 0 0 0 0 0 0 0 0 0 0 0 0 0 0 0 0 0 0 0 0 0 0 0 0 0 0 0 0 0 0 0 0
0 0 0 0 0 0 0 0 0 0 0 0 0 0 0 0 0 0 0 0 0 0 0 0 0 0 0 0 0 0 0 0 0 0 0 0 0 0 0 0 0 0 0
0 0 0 0 0 0 0 0 0 0 0 0 0 0 0 0 0 0 0 0 0 0 0 0 0 0 0 0 0 0 0 0 0 0 0 0 0 0 0 0 0 0 0
0 0 0 0 0 0 0 0 0 0 0 0 0 0 0 0 0 0 0 0 0 0 0 0 0 0 0 0 0 0 0 0 0 0 0 0 0 0 0 0 0 0 0
0 0 0 0 0 0 0 0 0 0 0 0 0 0 0 0 0 0 0 0 0 0 0 0 0 0 0 0 0 0 0 0 0 0 0 0 0 0 0 0 0 0 0
0 0 0 0 0 0 0 0 0 0 0 0 0 0 0 0 0 0 0 0 0 0 0 0 0 0 0 0 0 0 0 0 0 0 0 0 0 0 0 0 0 0 0
0 0 0 0 0 0 0 0 0 0 0 0 0 0 0 0 0 0 0 0 0 0 0 0 0 0 0 0 0 0 0 0 0 0 0 0 0 0 0 0 0 0 0
0 0 0 0 0 0 0 0 0 0 0 0 0 0 0 0 0 0 0 0 0 0 0 0 0 0 0 0 0 0 0 0 0 0 0 0 0 0 0 0 0 0 0
1 1 0 0 0 0 0 0 0 0 0 0 0 0 0 0 0 0 0 0 0 0 0 0 0 0 0 0 0 0 0 0 0 0 0 0 0 0 0 0 0 0 0
1 1 1 0 0 0 0 0 0 0 0 0 0 0 0 0 0 0 0 0 0 0 0 0 0 0 0 0 0 0 0 0 0 0 0 0 0 0 0 0 0 0 0
1 1 1 1 1 1 1 1 0 0 0 0 0 0 0 0 0 0 0 0 0 0 0 0 0 0 0 0 0 0 0 0 0 0 0 0 0 0 0 0 0 0 0
1 1 1 1 1 1 1 1 0 0 0 0 0 0 0 0 0 0 0 0 0 0 0 0 0 0 0 0 0 0 0 0 0 0 0 0 0 0 0 0 0 0 0
0 0 0 1 1 1 0 0 0 0 0 0 0 0 0 0 0 0 0 0 0 0 0 0 0 0 0 0 0 0 0 0 0 0 0 0 0 0 0 0 0 0 0
0 0 0 0 0 0 0 0 0 0 0 0 0 0 0 0 0 0 0 0 0 0 0 0 0 0 0 0 0 0 0 0 0 0 0 0 0 0 0 0 0 0 0
0 0 0 0 0 0 0 0 0 0 0 0 0 0 0 0 0 0 0 0 0 0 0 0 0 0 0 0 0 0 0 0 0 0 0 0 0 0 0 0 0 0 0
0 0 0 0 0 0 0 0 0 0 0 0 0 0 0 0 0 0 0 0 0 0 0 0 0 0 0 0 0 0 0 0 0 0 0 0 0 0 0 0 0 0 0
0 0 0 0 0 0 0 0 0 0 0 0 0 0 0 0 0 0 0 0 0 0 0 0 0 0 0 0 0 0 0 0 0 0 0 0 0 0 0 0 0 0 0
0 0 0 0 0 0 0 0 0 0 0 0 0 0 0 0 0 0 0 0 0 0 0 0 0 0 0 0 0 0 0 0 0 0 0 0 0 0 0 0 0 0 0
0 0 0 0 0 0 0 0 0 0 0 0 0 0 0 0 0 0 0 0 0 0 0 0 0 0 0 0 0 0 0 0 0 0 0 0 0 0 0 0 0 0 0
0 0 0 0 0 0 0 0 0 0 0 0 0 0 0 0 0 0 0 0 0 0 0 0 0 0 0 0 0 0 0 0 0 0 0 0 0 0 0 0 0 0 0
0 0 0 0 0 0 0 0 0 0 0 0 0 0 0 0 0 0 0 0 0 0 0 0 0 0 0 0 0 0 0 0 0 0 0 0 0 0 0 0 0 0 0
0 0 0 0 0 0 0 0 0 0 0 0 0 0 0 0 0 0 0 0 0 0 0 0 0 0 0 0 0 0 0 0 0 0 0 0 0 0 0 0 0 0 0
0 0 0 0 0 0 0 0 0 0 0 0 0 0 0 0 0 0 0 0 0 0 0 0 0 0 0 0 0 0 0 0 0 0 0 0 0 0 0 0 0 0 0
1 1 0 0 0 0 0 0 0 0 0 0 0 0 0 0 0 0 0 0 0 0 0 0 0 0 0 0 0 0 0 0 0 0 0 0 0 0 0 0 0 0 0
1 1 1 1 1 0 0 0 0 0 0 0 0 0 0 0 0 0 0 0 0 0 0 0 0 0 0 0 0 0 0 0 0 0 0 0 0 0 0 0 0 0 0
Wind_Speed
6 6 6 5 5 5 5 4 4 5 5 6 6 7 7 7 7 7 7 14 11 10 9 9 9 9 9 8 7 6 4 3 2 1 1 1 2 3 4 5 6 6 6
6 6 7 7 6 5 4 5 6 5 5 5 6 7 7 7 8 8 7 11 17 16 13 12 11 10 10 10 10 9 7 5 3 2 2 2 3 3 4 5 5 6 7
8 7 7 8 7 6 6 4 7 5 5 5 6 6 6 7 7 8 8 6 9 16 17 16 15 13 12 11 11 10 9 7 6 4 3 3 3 3 4 4 5 6 7
10 8 7 7 8 6 5 5 6 6 5 5 5 5 5 5 8 7 7 7 6 6 12 16 17 16 16 14 13 12 10 8 7 5 4 4 4 3 3 4 4 5 6
11 9 7 7 9 7 6 6 7 6 6 5 5 4 4 5 5 6 7 8 7 6 6 9 13 16 16 16 15 14 12 10 8 7 5 4 4 3 3 3 4 5 5
11 9 7 9 9 7 7 7 7 6 6 6 5 4 3 4 4 5 6 6 7 7 7 6 5 8 13 15 16 15 14 12 10 9 7 5 4 3 2 3 3 4 4
10 9 7 9 8 8 9 10 8 8 7 7 6 5 4 3 4 4 4 5 7 6 6 6 6 5 5 11 15 15 15 14 12 10 9 7 5 4 3 2 2 3 4
11 10 11 9 9 7 9 10 9 8 7 7 7 5 5 4 3 3 3 2 4 5 5 6 6 6 5 5 9 14 14 14 13 11 10 9 7 5 3 3 2 2 3
11 10 11 10 9 9 8 10 11 11 9 10 8 6 4 4 5 5 5 4 3 2 3 4 5 5 5 5 5 10 13 14 14 14 13 11 9 7 5 3 2 1 2
11 11 11 10 9 8 8 9 10 10 10 9 8 6 4 3 4 5 5 5 5 4 3 2 2 4 4 4 5 9 11 12 14 14 14 13 11 9 6 3 2 1 1
10 11 12 11 10 8 8 8 9 10 9 9 8 7 6 3 6 4 5 6 6 6 4 3 2 2 3 3 3 8 9 10 12 13 13 13 13 11 8 5 3 2 1
6 9 10 10 10 8 8 7 8 10 9 10 9 8 7 6 6 4 4 6 6 6 6 4 3 3 1 1 5 6 7 8 10 11 12 13 13 13 11 9 7 5 4
5 8 8 9 9 9 8 6 6 8 10 10 10 8 7 7 5 5 4 3 4 5 6 5 5 4 3 2 4 2 5 6 7 9 10 12 13 13 13 12 11 10 10
5 6 8 8 8 9 8 7 5 6 8 10 10 9 6 6 5 6 5 4 4 5 6 7 6 6 5 4 5 4 5 4 5 6 8 10 11 12 13 14 14 14 14
4 6 7 8 8 9 9 8 5 6 6 7 7 8 7 6 6 7 7 6 5 5 5 7 5 7 6 4 5 5 4 7 3 4 6 8 9 10 11 11 12 12 13
5 7 8 8 9 9 9 7 6 5 5 5 4 7 7 6 6 7 8 7 7 6 5 4 5 6 7 6 6 5 4 6 3 3 5 6 7 8 9 9 10 10 11
6 8 8 9 9 9 9 8 7 7 6 5 5 7 8 8 7 7 7 8 8 7 6 4 4 6 10 9 7 6 5 5 6 4 4 5 6 7 7 7 8 9 9
6 7 8 9 9 9 9 9 8 8 6 5 5 7 8 7 9 8 7 8 8 8 7 7 5 6 10 10 9 8 6 4 4 7 4 4 5 5 6 6 6 7 7
7 8 7 8 9 9 9 9 8 8 7 7 6 7 8 8 9 8 9 8 8 7 7 6 6 5 6 7 9 8 7 5 5 7 6 5 5 5 4 4 5 6 6
8 8 8 8 8 9 10 10 9 9 9 8 8 9 9 9 10 9 8 10 9 9 8 8 7 7 6 7 8 8 8 7 6 6 4 3 5 5 4 4 4 5 6
8 9 8 8 8 7 8 9 9 10 10 10 10 10 9 10 10 8 7 8 9 8 8 8 8 8 8 8 9 9 8 7 7 6 6 6 7 6 7 7 5 4 5
8 8 9 9 8 6 5 6 7 8 9 10 9 9 9 11 12 13 13 11 9 10 10 10 9 10 12 11 9 9 9 8 6 7 7 6 5 5 5 4 7 5 5
9 9 10 9 9 7 7 8 9 8 8 9 10 9 8 8 10 10 12 15 14 15 13 10 11 12 11 11 12 12 11 9 6 7 7 7 6 6 5 5 9 7 6
7 8 8 8 8 7 8 7 7 10 9 9 10 10 10 10 9 10 9 10 12 13 14 13 12 10 8 8 11 11 10 8 6 6 7 6 7 6 6 7 11 9 7
7 8 8 8 8 7 8 7 8 8 8 9 8 8 9 10 8 8 9 9 9 9 9 11 8 3 2 6 8 7 9 9 7 7 8 6 6 6 6 7 10 12 8
8 8 8 8 8 7 8 8 10 7 7 6 5 6 6 7 4 8 9 8 9 8 6 7 8 7 8 10 14 11 9 9 7 7 9 8 6 7 6 7 8 10 9
Wind_Direction
183 171 171 166 173 162 162 152 149 110 91 74 64 69 77 72 72 74 66 58 59 65 68 70 69 68 67 67 71 78 87 102 110 105 26 0 359 4 9 12 15 16 16
187 178 179 171 175 176 162 163 142 129 107 88 78 72 72 78 75 84 86 71 62 59 60 65 67 69 69 68 66 65 64 69 76 68 33 6 358 4 9 10 14 18 19
189 185 184 178 176 175 168 162 141 135 116 116 106 89 76 69 80 81 80 81 76 64 53 54 57 61 64 62 61 58 56 56 53 46 36 19 7 8 14 13 18 23 23
196 186 187 187 177 177 172 158 165 154 143 143 124 105 95 82 68 69 74 76 70 72 64 50 49 52 55 56 54 52 51 51 48 43 35 24 12 12 19 19 24 26 26
197 188 195 192 182 180 181 175 176 169 158 150 131 120 98 87 89 78 75 72 77 72 77 75 63 50 46 46 44 43 45 47 46 43 38 30 20 16 25 29 28 27 27
206 193 196 203 190 183 186 186 179 180 164 169 154 132 114 111 98 80 74 74 69 67 64 61 74 72 53 42 35 33 35 39 42 41 40 35 27 22 27 32 29 28 32
208 201 206 210 199 195 194 193 181 181 179 177 161 154 144 144 108 115 93 91 87 77 77 66 55 45 71 64 38 29 26 28 34 37 37 36 33 30 30 31 30 36 43
203 205 206 208 208 207 201 196 185 184 184 191 187 172 165 165 180 155 143 111 108 99 77 73 72 62 47 52 60 33 25 22 27 36 37 38 35 37 35 29 33 55 61
202 206 212 211 216 211 204 198 192 188 188 203 207 199 192 175 160 176 175 179 141 125 110 76 71 71 64 54 46 42 26 23 26 31 35 35 34 33 30 26 25 55 68
204 206 211 211 216 216 209 202 198 198 194 199 212 234 248 157 177 160 189 193 184 183 159 139 97 74 66 74 74 50 31 27 27 28 28 28 29 29 28 32 34 55 86
207 206 209 207 207 207 205 201 200 204 202 203 204 206 213 200 240 189 167 180 191 199 186 177 158 104 79 72 64 56 37 30 31 30 28 25 24 25 31 40 54 67 71
203 207 204 202 198 191 188 190 199 207 214 213 212 210 207 208 225 215 190 177 183 178 185 185 196 165 135 109 74 60 47 34 32 33 31 29 27 28 32 40 50 56 55
201 204 199 199 191 183 172 171 196 204 216 221 219 224 227 230 233 232 234 195 178 164 178 195 195 185 180 179 121 105 89 46 34 37 36 33 33 35 38 42 49 55 56
207 198 195 191 179 171 162 165 184 203 214 218 219 223 232 236 244 245 250 241 219 194 193 191 178 192 187 189 109 253 122 79 44 43 44 40 40 42 46 48 50 54 56
191 182 181 172 165 162 159 160 171 189 205 216 215 216 223 229 236 245 250 248 242 238 219 193 177 194 190 184 152 215 151 104 71 57 57 53 49 48 50 52 51 51 52
181 172 174 169 165 161 157 156 159 170 185 204 216 217 217 226 229 231 237 244 246 243 245 182 168 179 185 182 179 212 109 135 122 79 70 65 59 53 54 56 54 50 48
188 185 185 180 176 172 168 163 160 163 175 193 213 225 225 223 225 224 225 230 236 235 234 206 151 181 181 192 172 195 176 195 138 112 85 80 70 62 57 58 56 53 50
199 200 193 188 185 182 175 172 170 170 176 197 216 229 235 229 231 227 221 225 227 230 228 211 166 199 194 191 182 188 190 195 164 121 102 94 88 79 70 63 61 60 60
202 202 201 199 194 189 186 189 187 182 188 201 217 232 239 234 234 230 224 228 229 228 228 217 172 172 197 194 190 191 197 191 187 149 149 138 115 100 91 81 74 73 75
208 208 207 207 205 200 199 199 198 198 201 209 219 229 236 233 235 234 230 233 229 223 218 216 180 173 178 192 194 193 195 193 199 183 169 143 128 136 127 117 104 96 95
218 213 211 213 207 208 212 210 207 208 212 215 221 228 237 243 245 242 239 235 229 222 214 214 201 185 181 177 197 195 197 186 194 194 191 185 186 186 164 161 152 127 118
218 217 218 217 211 216 187 198 227 219 223 226 230 233 235 239 242 235 236 238 233 225 219 216 213 208 203 197 188 188 190 184 194 187 208 195 197 202 195 173 127 139 141
216 218 218 216 216 206 175 195 218 242 238 238 239 239 238 240 240 244 228 222 226 232 239 238 231 228 220 199 187 189 192 196 203 157 194 193 187 207 188 136 144 172 164
206 214 217 213 213 199 184 206 211 238 245 244 243 245 242 242 237 238 235 224 224 221 224 234 246 249 240 201 190 195 194 198 187 156 196 203 180 198 183 170 168 187 182
205 209 208 208 211 198 186 208 222 239 244 247 246 247 248 246 234 219 229 226 227 228 222 225 248 267 157 169 178 188 182 183 191 186 196 219 180 187 185 192 172 184 192
210 209 208 210 211 212 180 200 227 240 242 243 240 241 240 253 240 202 224 223 225 223 210 203 209 193 184 180 182 197 191 198 204 185 186 202 179 183 196 190 184 182 194